Wind_Speed
7 5 17 28 17 4 4 5 6 6 7 15 17 11 18 20 17 19 18 19 19 21 23 29 27 30 31 35 36 39 40 38 36 34 30 27 24 18 14 14 19 20 17 14
6 18 19 6 8 11 7 5 6 7 5 14 16 17 18 22 26 26 24 22 23 20 20 26 30 31 31 36 39 40 43 42 40 38 36 33 29 23 18 13 14 20 18 15
9 3 14 10 10 14 13 13 9 8 2 8 6 17 14 21 13 15 19 20 18 22 23 22 27 33 32 34 39 41 44 42 46 43 37 28 28 26 22 18 16 14 19 17
13 14 17 18 17 12 13 13 15 11 3 5 8 5 14 20 20 20 21 21 21 23 21 20 25 31 36 35 40 41 42 43 45 43 40 35 31 27 30 26 19 16 16 20
14 14 18 16 20 17 13 6 9 8 4 2 13 2 6 17 18 24 24 23 24 24 23 24 24 35 40 35 38 42 42 42 42 44 41 40 33 32 29 30 24 18 18 22
10 10 16 26 11 14 4 4 3 2 4 10 16 7 5 17 22 27 27 25 25 24 25 26 34 33 33 38 35 37 41 41 41 46 44 41 37 34 31 28 29 24 23 26
8 20 15 6 16 10 10 9 4 4 5 12 8 6 13 21 24 25 28 28 26 23 21 20 22 26 32 36 37 37 39 40 42 45 44 45 42 38 33 31 30 29 27 29
5 8 14 10 16 14 11 12 6 9 4 10 5 7 6 16 19 24 26 29 25 21 15 21 22 32 35 38 38 40 40 40 41 44 45 46 44 41 37 33 33 31 29 31
4 7 11 19 14 17 12 19 10 4 3 3 4 4 5 8 12 19 21 19 21 22 20 25 22 31 35 38 41 43 41 42 42 45 42 42 43 41 39 36 33 37 32 26
2 6 7 13 10 15 16 8 9 5 9 6 4 5 9 13 11 18 21 18 19 23 22 20 21 28 34 40 42 43 44 46 45 43 41 42 45 45 41 37 35 34 32 29
1 3 8 8 6 24 6 14 7 6 4 11 2 8 6 11 17 16 20 21 21 23 26 22 18 30 35 32 37 42 41 41 39 40 40 39 39 40 41 40 37 36 34 34
2 1 6 10 14 15 8 8 8 10 14 2 7 14 2 10 11 17 20 19 21 25 25 24 21 26 31 31 33 37 39 38 40 43 41 38 36 40 40 41 40 38 37 34
1 2 6 8 2 4 3 3 14 4 4 12 17 12 5 6 6 12 15 15 15 20 22 24 20 19 25 32 31 36 37 39 40 38 36 34 35 37 38 40 41 40 38 36
4 5 7 7 8 14 11 20 19 11 12 6 14 10 8 9 8 8 10 13 15 19 23 22 20 20 25 32 32 34 36 38 37 36 36 36 37 38 38 40 40 40 42 41
1 5 8 11 18 20 20 23 24 14 14 15 13 10 10 11 8 7 9 9 19 25 25 23 23 20 21 28 30 33 34 35 37 36 35 37 37 37 38 39 40 41 40 42
2 3 3 8 22 19 19 19 18 20 21 6 4 11 6 5 4 12 12 12 15 20 25 25 25 23 21 28 34 33 34 35 37 36 37 37 36 36 37 38 38 38 40 39
4 4 3 6 8 13 5 7 13 12 16 4 7 3 8 7 13 13 16 12 9 18 21 23 24 23 21 32 37 34 37 34 35 34 34 33 33 34 35 35 32 35 37 37
6 3 2 6 7 7 9 8 5 23 22 20 10 5 6 13 10 18 17 15 13 8 5 20 20 20 30 31 32 27 29 33 32 31 31 31 32 33 32 31 33 32 33 36
6 2 1 3 7 8 1 6 9 5 16 23 20 18 5 4 14 16 21 18 14 10 9 6 6 17 24 26 27 28 27 28 28 30 33 33 35 33 31 32 34 34 32 33
8 5 2 3 4 5 4 18 17 11 10 20 20 19 18 10 9 6 16 17 16 16 12 11 12 18 25 24 31 29 26 26 28 32 34 33 34 34 34 35 35 34 32 33
5 3 9 10 5 1 9 21 17 6 1 13 15 16 15 12 2 5 10 15 15 14 17 20 19 16 13 19 29 27 26 29 32 25 27 31 38 39 34 33 32 31 31 28
3 2 1 3 4 4 16 7 6 4 3 6 10 14 14 10 7 8 11 13 16 16 20 25 19 18 16 17 25 18 14 14 17 22 28 33 35 31 30 33 33 31 29 28
4 3 2 2 2 3 7 5 7 9 7 9 10 10 12 13 9 7 8 10 11 13 17 22 20 19 24 26 28 24 13 10 9 10 21 26 30 32 33 33 31 27 28 27
6 10 3 8 3 12 12 3 7 11 11 12 8 10 9 10 11 8 7 8 9 12 15 20 20 20 20 22 23 22 18 15 15 12 7 4 10 20 27 28 27 26 25 25
5 7 6 5 7 15 5 6 13 12 12 14 11 8 9 9 9 6 6 8 7 11 17 20 17 15 18 20 18 17 17 16 14 10 9 8 5 4 9 19 23 26 27 28
7 3 3 4 12 7 15 13 10 11 12 12 13 15 10 7 8 6 7 6 8 10 16 19 20 21 25 25 20 14 14 14 14 13 9 7 6 4 8 14 15 20 26 27
Wind_Direction
190 173 202 211 207 183 170 177 185 211 220 192 214 200 178 178 177 182 192 196 196 199 197 196 193 189 190 198 199 202 204 207 209 210 203 202 198 195 184 198 207 207 204 198
144 215 217 202 183 214 243 241 241 284 208 195 211 218 190 180 192 189 190 197 201 196 199 200 196 193 187 194 202 202 207 209 211 211 207 209 210 208 203 190 193 208 210 208
198 223 185 201 194 200 217 220 229 222 73 206 221 237 182 201 197 198 197 206 212 201 198 199 200 197 193 193 200 204 206 206 211 211 213 213 214 216 213 208 202 206 214 216
231 232 197 192 216 189 215 208 226 241 156 216 184 249 204 188 199 202 204 196 213 209 206 206 205 203 196 197 202 205 205 204 208 209 210 210 212 213 220 220 215 212 214 216
215 196 222 209 208 195 227 191 205 233 209 256 256 171 222 184 206 206 211 204 207 210 206 203 205 205 204 194 195 201 203 204 205 208 209 214 215 220 221 226 225 221 218 217
245 249 207 227 220 213 166 208 202 106 166 243 243 165 239 192 208 204 210 210 207 207 203 208 205 202 203 198 194 196 198 203 204 208 209 213 213 217 219 223 220 220 220 218
328 248 260 215 205 201 195 148 237 234 202 233 201 213 223 203 214 208 199 209 208 207 207 202 199 203 198 198 191 192 197 200 202 207 208 212 215 215 215 218 217 220 222 221
13 270 222 226 206 200 208 195 170 188 186 222 199 209 233 199 220 215 213 200 200 197 209 211 200 200 199 196 191 191 194 201 200 204 207 212 215 217 218 217 218 221 226 229
19 264 322 299 238 188 197 208 193 91 321 162 219 259 231 203 221 214 217 211 207 203 198 215 204 199 196 193 191 191 193 198 199 202 205 208 212 215 217 221 222 223 226 232
61 302 280 302 302 228 207 164 190 216 193 218 275 218 221 166 204 219 226 212 208 208 205 207 204 200 196 195 193 193 194 195 198 200 202 207 212 218 221 224 223 224 225 229
60 131 295 337 236 218 202 205 206 169 186 219 241 244 212 180 186 200 221 219 208 205 206 205 202 203 201 194 193 195 196 196 197 197 200 205 210 215 219 225 227 229 229 231
22 123 273 254 280 303 275 208 165 199 214 237 243 243 271 232 170 193 205 213 211 206 204 204 201 197 196 195 191 195 195 195 196 198 199 203 207 213 216 221 228 231 232 234
48 91 303 299 255 17 335 260 215 175 113 212 225 240 249 268 272 187 201 220 212 211 208 208 196 190 194 195 189 192 193 196 198 196 198 200 204 208 213 221 225 230 232 234
162 202 211 255 316 312 289 310 309 302 216 188 228 225 263 267 241 263 203 217 211 208 210 206 192 188 189 192 190 190 194 197 197 195 196 200 204 208 212 220 223 227 233 232
171 240 238 260 273 276 274 277 286 287 260 206 229 195 220 233 252 273 282 229 223 216 203 199 191 189 186 186 190 190 194 193 194 194 197 202 206 209 214 217 222 226 228 230
149 264 322 289 275 251 249 265 265 255 259 209 194 234 195 59 55 11 330 277 238 204 192 190 189 188 184 184 191 187 191 192 191 195 200 204 204 207 211 216 219 221 225 229
142 245 47 267 305 308 212 320 307 79 34 335 210 282 306 51 56 25 353 321 247 197 186 189 187 187 187 188 188 188 191 187 190 194 201 203 204 206 209 213 214 217 222 224
151 210 90 279 300 186 151 21 345 81 44 23 4 290 148 101 82 45 10 3 15 14 191 191 187 187 192 189 189 184 182 187 188 193 199 200 202 206 208 209 212 216 217 222
131 138 258 265 318 103 349 354 336 21 44 15 11 20 349 99 50 28 1 4 10 23 37 28 140 167 177 175 175 178 179 183 185 193 198 199 202 205 204 207 213 215 214 219
139 175 299 314 272 170 272 310 311 247 44 357 3 7 12 39 67 343 341 350 360 17 26 28 53 130 157 166 168 170 175 178 193 199 201 199 202 206 205 209 213 215 214 220
137 185 228 238 258 159 312 317 309 72 224 334 352 4 2 37 18 291 338 3 6 13 24 29 47 67 92 167 170 178 180 194 206 201 200 203 210 212 209 211 214 217 215 219
81 300 272 264 220 151 334 355 67 171 86 343 348 360 357 348 353 8 8 6 7 8 21 27 39 44 72 108 155 136 158 196 205 203 203 211 215 210 210 213 216 215 214 218
65 345 276 257 300 354 4 76 66 52 28 4 342 341 345 351 348 355 5 2 356 3 15 26 34 42 49 74 89 84 85 108 129 182 212 216 218 217 214 212 214 211 211 216
357 11 340 322 6 312 323 108 43 1 347 339 330 322 332 336 348 345 356 7 6 4 6 21 32 35 32 54 66 72 68 68 72 72 82 143 211 222 221 216 213 210 211 215
5 316 310 260 272 323 93 340 338 339 335 331 328 329 322 331 331 337 343 359 1 5 14 30 31 29 22 38 53 58 57 54 55 49 37 29 360 280 227 221 216 215 220 218
339 297 338 335 319 290 278 300 320 323 319 320 323 321 317 311 303 324 343 348 355 7 18 26 18 20 17 17 26 35 37 31 27 26 15 1 350 305 238 220 216 225 228 228
Height
742 757 753 739 743 746 748 751 754 742 732 740 744 745 752 750 758 763 767 768 768 768 772 778 783 786 791 796 801 804 809 813 819 823 827 830 832 835 837 838 841 844 847 848
748 746 732 739 744 749 752 758 757 741 730 737 739 744 741 747 746 746 753 758 758 763 768 772 776 781 784 790 795 800 803 809 814 819 823 826 829 832 836 838 840 843 845 848
739 727 728 736 743 750 752 757 754 751 736 728 736 747 740 742 745 749 749 752 759 756 759 764 769 773 779 782 788 793 798 803 809 814 820 824 827 830 832 835 838 840 843 846
733 716 722 729 737 739 762 735 738 744 753 765 733 780 742 741 748 745 745 746 752 752 753 758 763 767 769 774 782 789 794 798 804 810 815 818 821 824 828 831 836 839 842 844
718 717 722 728 721 726 733 728 738 741 752 755 742 769 751 733 749 739 735 735 738 743 745 748 753 757 762 770 775 782 789 794 799 804 810 814 818 820 825 830 834 837 840 843
720 702 705 707 710 716 717 728 737 742 759 768 742 758 756 738 728 723 719 723 725 732 734 737 744 753 759 764 770 776 782 788 795 798 804 809 813 816 821 825 830 834 837 839
731 710 705 699 715 715 721 746 780 783 780 760 738 751 729 713 704 704 705 709 712 721 725 731 739 746 750 757 762 769 776 781 787 793 798 803 808 812 816 821 825 830 833 835
772 738 706 693 702 717 724 736 769 782 779 750 735 751 727 696 685 687 690 693 703 713 720 720 727 733 739 746 753 759 767 775 781 787 791 797 803 807 811 816 821 826 828 831
770 756 725 713 689 696 714 725 718 748 750 753 728 720 700 693 691 687 689 696 703 705 711 712 717 724 729 737 742 749 758 766 773 779 786 791 797 802 806 810 815 820 825 828
772 768 739 718 699 684 693 701 734 744 762 765 744 725 707 708 703 690 687 691 694 695 703 704 710 715 719 725 732 742 749 756 763 772 779 784 789 794 800 805 810 814 819 824
774 770 746 733 703 694 703 699 701 714 735 735 758 724 687 689 687 688 680 676 681 684 689 691 698 705 712 722 729 734 744 752 759 766 772 778 784 789 794 798 804 809 814 818
775 773 763 742 702 708 716 694 704 709 730 735 719 708 667 670 676 670 669 667 667 668 673 679 690 697 706 714 724 730 737 745 750 756 764 771 777 782 788 792 797 803 807 813
775 774 768 728 705 698 707 686 678 693 709 720 717 699 668 668 667 672 667 662 661 664 666 670 681 690 696 704 714 721 729 735 742 750 759 766 771 775 780 785 791 796 801 807
770 772 770 756 742 750 744 724 720 714 700 712 696 698 683 671 672 664 670 660 654 657 658 664 671 677 686 695 704 713 722 728 736 743 751 757 762 767 773 778 784 789 793 799
774 772 766 762 755 749 743 735 719 721 689 686 683 697 685 669 664 662 656 652 649 643 645 654 659 667 676 688 698 708 715 721 729 736 743 748 754 761 767 772 776 780 785 789
778 770 769 753 737 732 731 719 710 702 688 675 674 678 661 664 663 662 660 648 636 626 632 641 649 658 669 678 688 697 706 713 721 728 734 740 747 753 758 763 768 773 777 781
776 774 762 755 728 713 721 708 694 683 695 689 682 675 669 670 668 670 661 647 633 624 625 635 642 650 660 669 678 687 695 706 714 721 728 735 741 746 751 756 762 766 769 774
770 768 768 764 734 707 709 705 694 691 698 695 690 674 671 667 670 663 666 658 647 640 631 630 635 644 654 664 674 684 696 701 708 716 722 729 735 740 745 751 754 759 763 766
759 765 763 756 725 701 700 711 715 702 711 706 699 686 677 662 655 667 669 662 657 649 642 639 637 644 654 662 671 682 691 697 704 709 714 720 727 732 738 743 746 750 755 758
760 767 767 755 736 712 716 709 701 694 721 720 713 701 691 669 693 700 683 673 664 653 648 646 645 647 654 662 669 678 685 692 697 700 705 714 720 725 729 733 737 741 747 750
756 763 761 751 742 721 718 709 695 717 744 730 723 716 709 704 708 701 690 681 673 665 658 653 653 654 656 660 666 674 681 684 686 698 704 709 712 715 722 727 732 736 739 743
752 752 744 742 725 722 725 706 716 733 730 733 729 725 720 715 708 702 697 690 683 677 666 662 663 664 664 663 668 675 681 685 689 694 699 703 707 712 717 720 724 728 733 735
756 765 759 759 736 732 734 732 733 730 731 733 733 729 726 720 715 709 706 701 696 687 679 674 673 672 672 673 673 677 684 686 687 691 694 697 702 705 708 712 716 721 725 728
761 759 760 755 737 735 729 729 736 733 732 734 733 730 727 725 718 713 711 707 704 697 692 684 682 681 681 680 680 682 685 687 688 690 692 695 698 700 703 707 711 715 717 720
769 765 767 759 745 731 724 730 731 730 732 731 729 729 726 723 720 717 714 710 708 705 700 694 693 693 692 690 688 689 690 691 692 692 692 693 694 697 700 703 705 707 709 711
774 769 762 747 741 747 739 731 735 732 732 733 728 722 723 724 722 718 715 713 710 709 706 698 697 694 693 692 690 691 691 691 692 693 692 693 693 694 696 698 699 701 702 704